User: anonymous   Login
Location: Unspecified
(0.0000°N, 0.0000°E)
Time: 08:19:30
(UTC+00:00)
Language:

OPTUS D3 - Orbit

View from above orbital plane
View from above orbital plane
View from above satellite
View from above satellite

Ground track
Ground track

The orbit data is extracted from the following two-line orbital elements,

1 35756U 09044B   15213.62266766 -.00000164  00000-0  00000+0 0  9997
2 35756 000.0455 345.1159 0002868 122.3656 222.5909 01.00270583 21793
Epoch (UTC): 01 August 2015 14:56:38
Eccentricity: 0.0002868
inclination: 0.0455°
perigee height: 35774 km
apogee height: 35798 km
right ascension of ascending node: 345.1159°
argument of perigee: 122.3656°
revolutions per day: 1.00270583
mean anomaly at epoch: 222.5909°
orbit number at epoch: 2179

The dashed part of the orbit path shows where the satellite is in the earth's shadow,  

DLR